| time (UTC) | temp F | wind direction | speed knots | gust knots | rain 1hr in | rain 24hr in | rain mn in | humidity % | barometer mb |
| 20260504173536 | 63 | 324 | 1.7 | 3.5 | 0.00 | 0.00 | 0.00 | 73 | 1011.0 |
| 20260504173047 | 63 | 327 | 0.9 | 4.3 | 0.00 | 0.00 | 0.00 | 74 | 1010.9 |
| 20260504172535 | 63 | 0 | 0.0 | 4.3 | 0.00 | 0.00 | 0.00 | 75 | 1010.9 |
| 20260504172036 | 63 | 335 | 1.7 | 4.3 | 0.00 | 0.00 | 0.00 | 74 | 1010.9 |
| 20260504171545 | 63 | 339 | 0.9 | 3.5 | 0.00 | 0.00 | 0.00 | 75 | 1010.9 |
| 20260504171036 | 62 | 339 | 0.9 | 4.3 | 0.00 | 0.00 | 0.00 | 75 | 1010.9 |
| 20260504170536 | 61 | 339 | 1.7 | 5.2 | 0.00 | 0.00 | 0.00 | 76 | 1010.9 |
| 20260504151036 | 58 | 70 | 0.9 | 2.6 | 0.00 | 0.00 | 0.00 | 82 | 1011.1 |
| 20260504150536 | 59 | 68 | 0.9 | 2.6 | 0.00 | 0.00 | 0.00 | 80 | 1011.1 |
| 20260504141035 | 58 | 0 | 0.0 | 0.9 | 0.00 | 0.00 | 0.00 | 81 | 1010.6 |
| 20260504140539 | 57 | 0 | 0.0 | 0.9 | 0.00 | 0.00 | 0.00 | 82 | 1010.7 |
| 20260504140106 | 57 | 0 | 0.0 | 2.6 | 0.00 | 0.00 | 0.00 | 83 | 1010.7 |
| 20260504130539 | 55 | 272 | 1.7 | 4.3 | 0.00 | 0.00 | 0.00 | 80 | 1010.2 |
| 20260504110537 | 55 | 334 | 1.7 | 3.5 | 0.00 | 0.00 | 0.00 | 80 | 1010.2 |
| 20260504100536 | 57 | 353 | 0.0 | 1.7 | 0.00 | 0.00 | 0.00 | 76 | 1010.0 |
| 20260504081550 | 58 | 329 | 0.9 | 1.7 | 0.00 | 0.00 | 0.00 | 78 | 1009.7 |
| 20260504081039 | 58 | 0 | 0.0 | 2.6 | 0.00 | 0.00 | 0.00 | 77 | 1009.8 |
| 20260504080538 | 58 | 0 | 0.9 | 2.6 | 0.00 | 0.00 | 0.00 | 79 | 1009.8 |
| 20260504080106 | 57 | 327 | 0.9 | 1.7 | 0.00 | 0.00 | 0.00 | 81 | 1009.8 |
| 20260504050537 | 61 | 252 | 2.6 | 7.0 | 0.00 | 0.00 | 0.00 | 75 | 1009.6 |
| 20260504045543 | 62 | 62 | 0.0 | 2.6 | 0.00 | 0.00 | 0.00 | 70 | 1009.6 |
| 20260504045037 | 63 | 0 | 0.0 | 3.5 | 0.00 | 0.00 | 0.00 | 69 | 1009.5 |
| 20260504044552 | 63 | 62 | 0.9 | 6.1 | 0.00 | 0.00 | 0.00 | 70 | 1009.5 |
| 20260504044037 | 63 | 62 | 2.6 | 6.1 | 0.00 | 0.00 | 0.00 | 70 | 1009.5 |
| 20260504043542 | 64 | 64 | 2.6 | 5.2 | 0.00 | 0.00 | 0.00 | 69 | 1009.5 |
| 20260504043053 | 64 | 80 | 0.9 | 5.2 | 0.00 | 0.00 | 0.00 | 66 | 1009.5 |
| 20260504042541 | 64 | 79 | 0.9 | 5.2 | 0.00 | 0.00 | 0.00 | 67 | 1009.4 |
| 20260504042041 | 64 | 70 | 2.6 | 7.0 | 0.00 | 0.00 | 0.00 | 69 | 1009.5 |
| 20260504041549 | 65 | 81 | 3.5 | 7.0 | 0.00 | 0.00 | 0.00 | 65 | 1009.6 |
| 20260504041040 | 65 | 80 | 1.7 | 4.3 | 0.00 | 0.00 | 0.00 | 66 | 1009.5 |
| 20260504040540 | 65 | 75 | 2.6 | 6.1 | 0.00 | 0.00 | 0.00 | 66 | 1009.5 |
| 20260504040052 | 65 | 73 | 1.7 | 7.8 | 0.00 | 0.00 | 0.00 | 65 | 1009.5 |
| 20260504035540 | 66 | 72 | 5.2 | 7.8 | 0.00 | 0.00 | 0.00 | 64 | 1009.5 |
| 20260504035042 | 67 | 62 | 4.3 | 7.8 | 0.00 | 0.00 | 0.00 | 63 | 1009.4 |
| 20260504034549 | 69 | 64 | 5.2 | 7.8 | 0.00 | 0.00 | 0.00 | 60 | 1009.4 |
| 20260504034043 | 71 | 55 | 2.6 | 5.2 | 0.00 | 0.00 | 0.00 | 54 | 1009.5 |
| 20260504033537 | 72 | 0 | 1.7 | 8.7 | 0.00 | 0.00 | 0.00 | 42 | 1009.4 |
| 20260504033047 | 72 | 230 | 4.3 | 8.7 | 0.00 | 0.00 | 0.00 | 42 | 1009.3 |
| 20260504032541 | 71 | 238 | 4.3 | 8.7 | 0.00 | 0.00 | 0.00 | 44 | 1009.4 |
| 20260504032041 | 71 | 239 | 4.3 | 9.6 | 0.00 | 0.00 | 0.00 | 47 | 1009.4 |
| 20260504031547 | 71 | 233 | 6.1 | 9.6 | 0.00 | 0.00 | 0.00 | 47 | 1009.4 |
| 20260504031038 | 72 | 243 | 5.2 | 11.3 | 0.00 | 0.00 | 0.00 | 46 | 1009.4 |
| 20260504030540 | 73 | 239 | 7.8 | 12.2 | 0.00 | 0.00 | 0.00 | 43 | 1009.5 |
| 20260504030042 | 72 | 240 | 8.7 | 12.2 | 0.00 | 0.00 | 0.00 | 43 | 1009.5 |
| 20260504025541 | 73 | 247 | 7.8 | 11.3 | 0.00 | 0.00 | 0.00 | 43 | 1009.6 |
| 20260504025041 | 74 | 239 | 8.7 | 12.2 | 0.00 | 0.00 | 0.00 | 43 | 1009.6 |
| 20260504024602 | 75 | 226 | 6.1 | 13.9 | 0.00 | 0.00 | 0.00 | 38 | 1009.6 |
| 20260504024043 | 75 | 249 | 8.7 | 13.9 | 0.00 | 0.00 | 0.00 | 37 | 1009.6 |
| 20260504023540 | 75 | 216 | 9.6 | 13.9 | 0.00 | 0.00 | 0.00 | 37 | 1009.6 |
| 20260504023049 | 75 | 240 | 9.6 | 15.6 | 0.00 | 0.00 | 0.00 | 38 | 1009.7 |
| 20260504022541 | 76 | 245 | 9.6 | 15.6 | 0.00 | 0.00 | 0.00 | 38 | 1009.7 |
| 20260504022040 | 76 | 229 | 9.6 | 13.9 | 0.00 | 0.00 | 0.00 | 36 | 1009.7 |
| 20260504021546 | 76 | 233 | 8.7 | 13.9 | 0.00 | 0.00 | 0.00 | 36 | 1009.8 |
| 20260504021040 | 76 | 226 | 8.7 | 14.8 | 0.00 | 0.00 | 0.00 | 36 | 1009.7 |
| 20260504020539 | 76 | 237 | 10.4 | 15.6 | 0.00 | 0.00 | 0.00 | 36 | 1009.8 |
| 20260504020047 | 76 | 229 | 11.3 | 15.6 | 0.00 | 0.00 | 0.00 | 36 | 1009.8 |
| 20260504015540 | 76 | 225 | 10.4 | 16.5 | 0.00 | 0.00 | 0.00 | 36 | 1009.8 |
| 20260504015036 | 76 | 231 | 11.3 | 16.5 | 0.00 | 0.00 | 0.00 | 37 | 1009.9 |
| 20260504014551 | 75 | 245 | 12.2 | 17.4 | 0.00 | 0.00 | 0.00 | 38 | 1009.9 |
| 20260504014036 | 75 | 238 | 12.2 | 17.4 | 0.00 | 0.00 | 0.00 | 38 | 1010.1 |
| 20260504013536 | 75 | 223 | 12.2 | 16.5 | 0.00 | 0.00 | 0.00 | 38 | 1010.1 |
| 20260504013054 | 75 | 243 | 10.4 | 16.5 | 0.00 | 0.00 | 0.00 | 38 | 1010.1 |
| 20260504012540 | 75 | 227 | 12.2 | 17.4 | 0.00 | 0.00 | 0.00 | 38 | 1010.1 |
| 20260504012037 | 75 | 222 | 13.0 | 20.0 | 0.00 | 0.00 | 0.00 | 38 | 1010.2 |
| 20260504011549 | 75 | 237 | 13.0 | 20.0 | 0.00 | 0.00 | 0.00 | 38 | 1010.3 |
| 20260504011037 | 75 | 251 | 13.0 | 16.5 | 0.00 | 0.00 | 0.00 | 38 | 1010.3 |
| 20260504010536 | 75 | 233 | 11.3 | 16.5 | 0.00 | 0.00 | 0.00 | 39 | 1010.3 |
| 20260504010049 | 75 | 245 | 11.3 | 17.4 | 0.00 | 0.00 | 0.00 | 41 | 1010.4 |
| 20260504005536 | 74 | 237 | 13.0 | 18.2 | 0.00 | 0.00 | 0.00 | 42 | 1010.4 |
| 20260504005036 | 74 | 251 | 14.8 | 19.1 | 0.00 | 0.00 | 0.00 | 43 | 1010.4 |
| 20260504004548 | 73 | 236 | 13.9 | 21.7 | 0.00 | 0.00 | 0.00 | 43 | 1010.6 |
| 20260504004038 | 74 | 237 | 13.0 | 21.7 | 0.00 | 0.00 | 0.00 | 46 | 1010.6 |
| 20260504003536 | 74 | 216 | 15.6 | 21.7 | 0.00 | 0.00 | 0.00 | 44 | 1010.7 |
| 20260504003053 | 75 | 236 | 16.5 | 21.7 | 0.00 | 0.00 | 0.00 | 42 | 1010.7 |
| 20260504002537 | 75 | 239 | 13.0 | 21.7 | 0.00 | 0.00 | 0.00 | 42 | 1010.7 |
| 20260504002037 | 75 | 214 | 13.9 | 20.9 | 0.00 | 0.00 | 0.00 | 40 | 1010.7 |
| 20260504001546 | 75 | 245 | 13.9 | 20.0 | 0.00 | 0.00 | 0.00 | 40 | 1010.9 |
| 20260504001038 | 75 | 239 | 12.2 | 20.0 | 0.00 | 0.00 | 0.00 | 41 | 1010.9 |
| 20260504000536 | 75 | 226 | 9.6 | 20.0 | 0.00 | 0.00 | 0.00 | 42 | 1010.9 |
| 20260504000116 | 75 | 234 | 12.2 | 20.9 | 0.00 | 0.00 | 0.00 | 41 | 1011.0 |
| 20260503235536 | 75 | 244 | 12.2 | 20.9 | 0.00 | 0.00 | 0.00 | 40 | 1011.0 |
| 20260503235036 | 75 | 244 | 13.0 | 20.9 | 0.00 | 0.00 | 0.00 | 40 | 1011.1 |
| 20260503234556 | 75 | 205 | 13.0 | 20.0 | 0.00 | 0.00 | 0.00 | 39 | 1011.1 |
| 20260503234037 | 74 | 211 | 13.9 | 19.1 | 0.00 | 0.00 | 0.00 | 43 | 1011.2 |
| 20260503233537 | 75 | 238 | 12.2 | 19.1 | 0.00 | 0.00 | 0.00 | 44 | 1011.2 |
| 20260503233045 | 74 | 245 | 13.9 | 19.1 | 0.00 | 0.00 | 0.00 | 46 | 1011.2 |
| 20260503232536 | 74 | 244 | 12.2 | 18.2 | 0.00 | 0.00 | 0.00 | 45 | 1011.3 |
| 20260503232036 | 74 | 243 | 14.8 | 19.1 | 0.00 | 0.00 | 0.00 | 45 | 1011.3 |
| 20260503231543 | 74 | 251 | 13.9 | 19.1 | 0.00 | 0.00 | 0.00 | 45 | 1011.5 |
| 20260503231036 | 73 | 246 | 14.8 | 19.1 | 0.00 | 0.00 | 0.00 | 47 | 1011.5 |
| 20260503230537 | 73 | 245 | 14.8 | 20.9 | 0.00 | 0.00 | 0.00 | 48 | 1011.6 |
| 20260503230049 | 73 | 248 | 15.6 | 20.9 | 0.00 | 0.00 | 0.00 | 48 | 1011.6 |
| 20260503225538 | 73 | 245 | 15.6 | 20.9 | 0.00 | 0.00 | 0.00 | 44 | 1011.6 |
| 20260503225036 | 72 | 243 | 14.8 | 19.1 | 0.00 | 0.00 | 0.00 | 46 | 1011.8 |
| 20260503224546 | 73 | 251 | 13.0 | 19.1 | 0.00 | 0.00 | 0.00 | 49 | 1011.9 |
| 20260503224036 | 72 | 236 | 13.0 | 19.1 | 0.00 | 0.00 | 0.00 | 45 | 1012.0 |
| 20260503223537 | 72 | 217 | 13.9 | 18.2 | 0.00 | 0.00 | 0.00 | 46 | 1012.1 |
| 20260503223049 | 71 | 208 | 13.0 | 17.4 | 0.00 | 0.00 | 0.00 | 46 | 1012.3 |
| 20260503222539 | 72 | 247 | 13.0 | 16.5 | 0.00 | 0.00 | 0.00 | 45 | 1012.3 |
| 20260503222037 | 72 | 256 | 9.6 | 13.9 | 0.00 | 0.00 | 0.00 | 49 | 1012.4 |
| 20260503221553 | 72 | 244 | 10.4 | 13.9 | 0.00 | 0.00 | 0.00 | 49 | 1012.5 |
| 20260503221101 | 72 | 245 | 7.8 | 13.9 | 0.00 | 0.00 | 0.00 | 47 | 1012.7 |
| 20260503220536 | 71 | 237 | 11.3 | 13.9 | 0.00 | 0.00 | 0.00 | 49 | 1012.7 |
| 20260503220049 | 72 | 245 | 9.6 | 13.0 | 0.00 | 0.00 | 0.00 | 49 | 1012.8 |
| 20260503215536 | 72 | 244 | 9.6 | 13.0 | 0.00 | 0.00 | 0.00 | 55 | 1012.8 |
| 20260503215036 | 72 | 247 | 9.6 | 14.8 | 0.00 | 0.00 | 0.00 | 53 | 1012.8 |
| 20260503214552 | 70 | 243 | 10.4 | 14.8 | 0.00 | 0.00 | 0.00 | 54 | 1012.8 |
| 20260503214040 | 71 | 252 | 12.2 | 14.8 | 0.00 | 0.00 | 0.00 | 58 | 1012.9 |
| 20260503213536 | 72 | 256 | 9.6 | 12.2 | 0.00 | 0.00 | 0.00 | 58 | 1012.9 |
| 20260503213040 | 72 | 264 | 7.8 | 12.2 | 0.00 | 0.00 | 0.00 | 51 | 1013.0 |
| 20260503212539 | 71 | 250 | 8.7 | 12.2 | 0.00 | 0.00 | 0.00 | 49 | 1013.0 |
| 20260503212036 | 70 | 248 | 7.8 | 13.0 | 0.00 | 0.00 | 0.00 | 52 | 1013.0 |
| 20260503211559 | 69 | 256 | 9.6 | 14.8 | 0.00 | 0.00 | 0.00 | 60 | 1013.2 |
| 20260503211035 | 69 | 247 | 10.4 | 14.8 | 0.00 | 0.00 | 0.00 | 60 | 1013.2 |
| 20260503210536 | 68 | 252 | 12.2 | 14.8 | 0.00 | 0.00 | 0.00 | 62 | 1013.4 |
| 20260503210050 | 68 | 252 | 13.0 | 14.8 | 0.00 | 0.00 | 0.00 | 62 | 1013.5 |
| 20260503205537 | 68 | 260 | 12.2 | 14.8 | 0.00 | 0.00 | 0.00 | 65 | 1013.5 |
| 20260503205036 | 67 | 251 | 11.3 | 14.8 | 0.00 | 0.00 | 0.00 | 66 | 1013.6 |
| 20260503204548 | 67 | 256 | 12.2 | 14.8 | 0.00 | 0.00 | 0.00 | 66 | 1013.5 |
| 20260503204036 | 67 | 258 | 12.2 | 14.8 | 0.00 | 0.00 | 0.00 | 67 | 1013.6 |
| 20260503203536 | 67 | 255 | 10.4 | 14.8 | 0.00 | 0.00 | 0.00 | 66 | 1013.6 |
| 20260503203105 | 67 | 254 | 12.2 | 14.8 | 0.00 | 0.00 | 0.00 | 65 | 1013.7 |
| 20260503202538 | 68 | 255 | 12.2 | 14.8 | 0.00 | 0.00 | 0.00 | 65 | 1013.7 |
| 20260503202036 | 68 | 259 | 10.4 | 12.2 | 0.00 | 0.00 | 0.00 | 65 | 1013.9 |
| 20260503201548 | 68 | 268 | 9.6 | 13.0 | 0.00 | 0.00 | 0.00 | 62 | 1013.9 |
| 20260503201036 | 67 | 256 | 9.6 | 14.8 | 0.00 | 0.00 | 0.00 | 69 | 1014.0 |
| 20260503200536 | 66 | 252 | 11.3 | 14.8 | 0.00 | 0.00 | 0.00 | 69 | 1014.1 |
| 20260503200043 | 66 | 252 | 12.2 | 14.8 | 0.00 | 0.00 | 0.00 | 71 | 1014.2 |
| 20260503195535 | 66 | 257 | 11.3 | 15.6 | 0.00 | 0.00 | 0.00 | 71 | 1014.2 |
| 20260503195037 | 65 | 253 | 11.3 | 15.6 | 0.00 | 0.00 | 0.00 | 72 | 1014.3 |
| 20260503194554 | 65 | 251 | 13.0 | 15.6 | 0.00 | 0.00 | 0.00 | 73 | 1014.4 |
| 20260503194037 | 66 | 261 | 12.2 | 14.8 | 0.00 | 0.00 | 0.00 | 71 | 1014.4 |
| 20260503193540 | 66 | 250 | 12.2 | 13.9 | 0.00 | 0.00 | 0.00 | 70 | 1014.6 |
| 20260503193051 | 66 | 258 | 12.2 | 13.9 | 0.00 | 0.00 | 0.00 | 70 | 1014.7 |
| 20260503192540 | 66 | 257 | 11.3 | 13.0 | 0.00 | 0.00 | 0.00 | 70 | 1014.7 |
| 20260503192038 | 66 | 259 | 10.4 | 13.0 | 0.00 | 0.00 | 0.00 | 72 | 1014.7 |
| 20260503191547 | 65 | 258 | 10.4 | 13.0 | 0.00 | 0.00 | 0.00 | 73 | 1014.8 |
| 20260503191043 | 65 | 262 | 10.4 | 12.2 | 0.00 | 0.00 | 0.00 | 71 | 1014.9 |
| 20260503190541 | 65 | 262 | 9.6 | 12.2 | 0.00 | 0.00 | 0.00 | 72 | 1014.9 |
| 20260503190049 | 65 | 257 | 8.7 | 12.2 | 0.00 | 0.00 | 0.00 | 72 | 1015.0 |
| 20260503185540 | 64 | 260 | 9.6 | 13.0 | 0.00 | 0.00 | 0.00 | 71 | 1015.0 |
| 20260503185040 | 64 | 257 | 9.6 | 13.0 | 0.00 | 0.00 | 0.00 | 73 | 1015.0 |
| 20260503184544 | 63 | 240 | 10.4 | 13.0 | 0.00 | 0.00 | 0.00 | 72 | 1015.1 |
| 20260503184040 | 63 | 254 | 10.4 | 13.0 | 0.00 | 0.00 | 0.00 | 73 | 1015.1 |
| 20260503183540 | 63 | 261 | 11.3 | 13.0 | 0.00 | 0.00 | 0.00 | 71 | 1015.1 |
| 20260503183047 | 63 | 252 | 11.3 | 13.9 | 0.00 | 0.00 | 0.00 | 72 | 1015.1 |
| 20260503182541 | 63 | 245 | 11.3 | 14.8 | 0.00 | 0.00 | 0.00 | 73 | 1015.1 |
| 20260503182039 | 62 | 251 | 11.3 | 14.8 | 0.00 | 0.00 | 0.00 | 75 | 1015.1 |
| 20260503181556 | 62 | 254 | 11.3 | 13.0 | 0.00 | 0.00 | 0.00 | 75 | 1015.1 |
| 20260503181040 | 62 | 249 | 11.3 | 13.0 | 0.00 | 0.00 | 0.00 | 74 | 1015.1 |
| 20260503180540 | 62 | 249 | 11.3 | 13.0 | 0.00 | 0.00 | 0.00 | 76 | 1015.1 |
| 20260503180049 | 61 | 257 | 11.3 | 13.0 | 0.00 | 0.00 | 0.00 | 76 | 1015.2 |
| 20260503175540 | 61 | 251 | 12.2 | 13.9 | 0.00 | 0.00 | 0.00 | 77 | 1015.3 |
| 20260503175040 | 61 | 256 | 12.2 | 13.9 | 0.00 | 0.00 | 0.00 | 78 | 1015.3 |
| 20260503174551 | 60 | 258 | 12.2 | 14.8 | 0.00 | 0.00 | 0.00 | 78 | 1015.2 |
| 20260503174040 | 60 | 255 | 13.0 | 14.8 | 0.00 | 0.00 | 0.00 | 79 | 1015.3 |